map of NQN home
Great Circle Mapper logo
NQN - Airport
Location
City:  Neuquén, Neuquén, Argentina
Name:Presidente Perón
ICAO:SAZN
IATA:NQN

Details
Type:Airport (Aerodrome, Airfield)
Use:Public/Civil
Latitude:38°56'56"S (-38.948999)
Longitude:68°09'21"W (-68.155710)
Datum:WGS 1984
Elevation:895 ft (273 m)
Variation:2.84°E (WMM2015 magnetic declination)
-0.14° annual change
Runways:1
Longest:8432 × 147 ft (2570 × 45 m), paved

Time
Time Zone:UTC-3
Local Time:

Weather
METAR:SAZN 010000Z 09002KT CAVOK 07/03 Q1024
TAF:SAZN 302300Z 0100/0124 09005KT CAVOK TX11/0118Z TN02/0110Z
BECMG 0110/0112 11010KT 9999 BKN050

Related Locations
Nearby:
Farthest:WUT: 12375 mi / 19915 km
Xinzhou (Dingxiang) [Xinzhou Wutaishan Airport (Dingxiang Airport)], 14, CN

Find:

   beyond  
but within

Other Information
Maps:
NOTAMs:
Links:
Sources:

  
flag of Argentina
flag of Neuquén
  

Sectional Chart

Flight Planning
at skyvector.com

Satellite Image

Google Maps Satellite view

 

Copyright © 2004-2016 Karl L. Swartz. All rights reserved.
The Great Circle Mapper name and logo are trademarks of the Great Circle Mapper.
All other trademarks mentioned herein belong to their respective owners.
Please see credits for attibutions and further copyright information.

  Follow gcmap on Facebook Follow gcmap on Twitter Follow gcmap on Google+ GCmap on LinkedIn

hCard Microformat

Geo Microformat